| time (UTC) | temp F | wind direction | speed MPH | gust MPH | rain 1hr in | rain 24hr in | rain mn in | humidity % | barometer mb |
| 20260504010047 | 51 | 333 | 0.0 | 0.0 | 0.00 | 0.00 | 0.00 | 60 | 1014.5 |
| 20260504005543 | 51 | 333 | 0.0 | 0.0 | 0.00 | 0.00 | 0.00 | 59 | 1014.5 |
| 20260504005041 | 51 | 333 | 0.0 | 0.0 | 0.00 | 0.00 | 0.00 | 58 | 1014.7 |
| 20260504004539 | 52 | 333 | 0.0 | 0.0 | 0.00 | 0.00 | 0.00 | 58 | 1014.6 |
| 20260504004035 | 52 | 333 | 0.0 | 2.0 | 0.00 | 0.00 | 0.00 | 57 | 1014.6 |
| 20260504003532 | 52 | 333 | 0.0 | 0.0 | 0.00 | 0.00 | 0.00 | 56 | 1014.4 |
| 20260504003029 | 52 | 332 | 0.0 | 0.0 | 0.00 | 0.00 | 0.00 | 55 | 1014.5 |
| 20260504002525 | 52 | 332 | 0.0 | 0.0 | 0.00 | 0.00 | 0.00 | 58 | 1014.6 |
| 20260504002023 | 52 | 333 | 0.0 | 0.0 | 0.00 | 0.00 | 0.00 | 55 | 1014.6 |
| 20260504001520 | 52 | 333 | 0.0 | 0.0 | 0.00 | 0.00 | 0.00 | 55 | 1014.6 |
| 20260504001011 | 53 | 333 | 0.0 | 0.0 | 0.00 | 0.00 | 0.00 | 55 | 1014.6 |
| 20260504000509 | 53 | 333 | 1.0 | 2.0 | 0.00 | 0.00 | 0.00 | 55 | 1014.6 |
| 20260504000006 | 53 | 333 | 0.0 | 0.0 | 0.00 | 0.00 | 0.00 | 53 | 1014.7 |
| 20260503235504 | 53 | 333 | 0.0 | 2.0 | 0.00 | 0.00 | 0.00 | 54 | 1014.6 |
| 20260503235001 | 53 | 329 | 1.0 | 2.0 | 0.00 | 0.00 | 0.00 | 52 | 1014.3 |
| 20260503234458 | 53 | 322 | 0.0 | 2.0 | 0.00 | 0.00 | 0.00 | 55 | 1014.5 |
| 20260503233956 | 53 | 303 | 1.0 | 2.0 | 0.00 | 0.00 | 0.00 | 55 | 1014.6 |
| 20260503233452 | 54 | 303 | 1.0 | 3.0 | 0.00 | 0.00 | 0.00 | 50 | 1014.5 |
| 20260503232949 | 54 | 286 | 1.0 | 2.0 | 0.00 | 0.00 | 0.00 | 50 | 1014.4 |
| 20260503232446 | 54 | 260 | 1.0 | 3.0 | 0.00 | 0.00 | 0.00 | 52 | 1014.3 |
| 20260503231944 | 54 | 318 | 1.0 | 2.0 | 0.00 | 0.00 | 0.00 | 53 | 1014.5 |
| 20260503231441 | 54 | 314 | 1.0 | 2.0 | 0.00 | 0.00 | 0.00 | 56 | 1014.5 |
| 20260503230937 | 54 | 314 | 1.0 | 2.0 | 0.00 | 0.00 | 0.00 | 53 | 1014.6 |
| 20260503230434 | 55 | 301 | 2.0 | 2.0 | 0.00 | 0.00 | 0.00 | 53 | 1014.4 |
| 20260503225932 | 56 | 329 | 2.0 | 3.0 | 0.00 | 0.00 | 0.00 | 47 | 1014.4 |
| 20260503225428 | 56 | 325 | 1.0 | 3.0 | 0.00 | 0.00 | 0.00 | 48 | 1014.6 |
| 20260503224924 | 56 | 342 | 1.0 | 2.0 | 0.00 | 0.00 | 0.00 | 52 | 1014.6 |
| 20260503224421 | 56 | 318 | 3.0 | 6.0 | 0.00 | 0.00 | 0.00 | 49 | 1014.4 |
| 20260503223919 | 56 | 314 | 4.0 | 5.0 | 0.00 | 0.00 | 0.00 | 51 | 1014.4 |
| 20260503223416 | 57 | 265 | 5.0 | 6.0 | 0.00 | 0.00 | 0.00 | 48 | 1014.5 |
| 20260503222911 | 56 | 309 | 4.0 | 6.0 | 0.00 | 0.00 | 0.00 | 51 | 1014.6 |
| 20260503222409 | 56 | 297 | 3.0 | 6.0 | 0.00 | 0.00 | 0.00 | 52 | 1014.7 |
| 20260503221907 | 56 | 326 | 3.0 | 5.0 | 0.00 | 0.00 | 0.00 | 45 | 1014.6 |
| 20260503221406 | 56 | 331 | 2.0 | 3.0 | 0.00 | 0.00 | 0.00 | 53 | 1014.6 |
| 20260503220902 | 56 | 304 | 3.0 | 3.0 | 0.00 | 0.00 | 0.00 | 52 | 1014.7 |
| 20260503220358 | 56 | 271 | 3.0 | 5.0 | 0.00 | 0.00 | 0.00 | 50 | 1014.6 |
| 20260503215855 | 57 | 319 | 4.0 | 5.0 | 0.00 | 0.00 | 0.00 | 46 | 1014.5 |
| 20260503215352 | 57 | 314 | 2.0 | 2.0 | 0.00 | 0.00 | 0.00 | 44 | 1014.5 |
| 20260503214850 | 57 | 292 | 4.0 | 6.0 | 0.00 | 0.00 | 0.00 | 49 | 1014.5 |
| 20260503214347 | 56 | 243 | 7.0 | 9.0 | 0.00 | 0.00 | 0.00 | 48 | 1014.6 |
| 20260503213844 | 56 | 6 | 2.0 | 3.0 | 0.00 | 0.00 | 0.00 | 45 | 1014.4 |
| 20260503213342 | 57 | 313 | 3.0 | 5.0 | 0.00 | 0.00 | 0.00 | 49 | 1014.4 |
| 20260503212839 | 57 | 317 | 0.0 | 0.0 | 0.00 | 0.00 | 0.00 | 46 | 1014.5 |
| 20260503212337 | 58 | 311 | 2.0 | 3.0 | 0.00 | 0.00 | 0.00 | 48 | 1014.3 |
| 20260503211834 | 57 | 337 | 3.0 | 5.0 | 0.00 | 0.00 | 0.00 | 44 | 1014.1 |
| 20260503211330 | 57 | 321 | 2.0 | 3.0 | 0.00 | 0.00 | 0.00 | 43 | 1014.4 |
| 20260503210825 | 57 | 313 | 2.0 | 3.0 | 0.00 | 0.00 | 0.00 | 43 | 1014.5 |
| 20260503210323 | 57 | 338 | 1.0 | 2.0 | 0.00 | 0.00 | 0.00 | 47 | 1014.6 |
| 20260503205818 | 58 | 304 | 3.0 | 5.0 | 0.00 | 0.00 | 0.00 | 43 | 1014.6 |
| 20260503205315 | 57 | 323 | 3.0 | 3.0 | 0.00 | 0.00 | 0.00 | 43 | 1014.6 |
| 20260503204811 | 58 | 263 | 3.0 | 5.0 | 0.00 | 0.00 | 0.00 | 43 | 1014.6 |
| 20260503204309 | 59 | 305 | 0.0 | 2.0 | 0.00 | 0.00 | 0.00 | 45 | 1014.5 |
| 20260503203805 | 59 | 318 | 2.0 | 3.0 | 0.00 | 0.00 | 0.00 | 45 | 1014.7 |
| 20260503203302 | 59 | 290 | 3.0 | 5.0 | 0.00 | 0.00 | 0.00 | 43 | 1014.7 |
| 20260503202754 | 57 | 305 | 5.0 | 8.0 | 0.00 | 0.00 | 0.00 | 43 | 1014.8 |
| 20260503202252 | 58 | 308 | 4.0 | 5.0 | 0.00 | 0.00 | 0.00 | 47 | 1014.9 |
| 20260503201750 | 56 | 336 | 2.0 | 3.0 | 0.00 | 0.00 | 0.00 | 50 | 1014.9 |
| 20260503201247 | 57 | 334 | 3.0 | 3.0 | 0.00 | 0.00 | 0.00 | 47 | 1015.0 |
| 20260503200744 | 58 | 351 | 0.0 | 2.0 | 0.00 | 0.00 | 0.00 | 42 | 1015.0 |
| 20260503200240 | 58 | 314 | 2.0 | 3.0 | 0.00 | 0.00 | 0.00 | 44 | 1015.1 |
| 20260503195737 | 57 | 313 | 1.0 | 3.0 | 0.00 | 0.00 | 0.00 | 43 | 1015.2 |
| 20260503195234 | 58 | 317 | 3.0 | 5.0 | 0.00 | 0.00 | 0.00 | 45 | 1015.5 |
| 20260503194732 | 59 | 304 | 3.0 | 5.0 | 0.00 | 0.00 | 0.00 | 48 | 1015.4 |
| 20260503194227 | 57 | 327 | 2.0 | 3.0 | 0.00 | 0.00 | 0.00 | 47 | 1015.5 |
| 20260503193723 | 57 | 313 | 4.0 | 5.0 | 0.00 | 0.00 | 0.00 | 43 | 1015.5 |
| 20260503193220 | 58 | 208 | 3.0 | 5.0 | 0.00 | 0.00 | 0.00 | 48 | 1015.5 |
| 20260503192715 | 58 | 325 | 2.0 | 3.0 | 0.00 | 0.00 | 0.00 | 49 | 1015.7 |
| 20260503192211 | 58 | 314 | 1.0 | 3.0 | 0.00 | 0.00 | 0.00 | 43 | 1015.8 |
| 20260503191708 | 57 | 328 | 2.0 | 3.0 | 0.00 | 0.00 | 0.00 | 43 | 1016.0 |
| 20260503191205 | 59 | 302 | 2.0 | 3.0 | 0.00 | 0.00 | 0.00 | 44 | 1015.8 |
| 20260503190702 | 59 | 357 | 6.0 | 8.0 | 0.00 | 0.00 | 0.00 | 48 | 1015.9 |
| 20260503190158 | 58 | 345 | 1.0 | 2.0 | 0.00 | 0.00 | 0.00 | 50 | 1016.1 |
| 20260503185655 | 56 | 325 | 2.0 | 3.0 | 0.00 | 0.00 | 0.00 | 45 | 1016.1 |
| 20260503185150 | 56 | 339 | 3.0 | 5.0 | 0.00 | 0.00 | 0.00 | 50 | 1016.0 |
| 20260503184646 | 56 | 345 | 2.0 | 2.0 | 0.00 | 0.00 | 0.00 | 47 | 1016.3 |
| 20260503184142 | 57 | 324 | 3.0 | 5.0 | 0.00 | 0.00 | 0.00 | 49 | 1016.2 |
| 20260503183638 | 57 | 327 | 2.0 | 3.0 | 0.00 | 0.00 | 0.00 | 50 | 1016.5 |
| 20260503183136 | 56 | 317 | 2.0 | 3.0 | 0.00 | 0.00 | 0.00 | 46 | 1016.2 |
| 20260503182634 | 57 | 196 | 7.0 | 11.0 | 0.00 | 0.00 | 0.00 | 52 | 1016.2 |
| 20260503182132 | 56 | 335 | 3.0 | 3.0 | 0.00 | 0.00 | 0.00 | 50 | 1016.5 |
| 20260503181629 | 57 | 146 | 1.0 | 3.0 | 0.00 | 0.00 | 0.00 | 46 | 1016.5 |
| 20260503181126 | 55 | 325 | 2.0 | 3.0 | 0.00 | 0.00 | 0.00 | 47 | 1016.4 |
| 20260503180623 | 56 | 211 | 3.0 | 5.0 | 0.00 | 0.00 | 0.00 | 51 | 1016.8 |
| 20260503180121 | 58 | 298 | 3.0 | 3.0 | 0.00 | 0.00 | 0.00 | 47 | 1016.5 |
| 20260503175617 | 57 | 340 | 2.0 | 3.0 | 0.00 | 0.00 | 0.00 | 51 | 1016.6 |
| 20260503175114 | 57 | 305 | 4.0 | 5.0 | 0.00 | 0.00 | 0.00 | 49 | 1016.8 |
| 20260503174611 | 55 | 332 | 2.0 | 3.0 | 0.00 | 0.00 | 0.00 | 58 | 1016.9 |
| 20260503174108 | 57 | 342 | 4.0 | 5.0 | 0.00 | 0.00 | 0.00 | 45 | 1016.8 |
| 20260503173603 | 57 | 292 | 3.0 | 5.0 | 0.00 | 0.00 | 0.00 | 53 | 1016.9 |
| 20260503173100 | 56 | 332 | 1.0 | 3.0 | 0.00 | 0.00 | 0.00 | 53 | 1017.0 |
| 20260503172557 | 54 | 298 | 1.0 | 2.0 | 0.00 | 0.00 | 0.00 | 48 | 1017.2 |
| 20260503172054 | 56 | 328 | 2.0 | 3.0 | 0.00 | 0.00 | 0.00 | 46 | 1016.8 |
| 20260503171550 | 56 | 335 | 2.0 | 3.0 | 0.00 | 0.00 | 0.00 | 47 | 1017.0 |
| 20260503171048 | 55 | 339 | 1.0 | 3.0 | 0.00 | 0.00 | 0.00 | 49 | 1017.2 |
| 20260503170544 | 55 | 319 | 4.0 | 5.0 | 0.00 | 0.00 | 0.00 | 53 | 1017.0 |
| 20260503150931 | 50 | 303 | 2.0 | 3.0 | 0.00 | 0.00 | 0.00 | 50 | 1018.0 |
| 20260503150427 | 50 | 331 | 3.0 | 3.0 | 0.00 | 0.00 | 0.00 | 52 | 1018.0 |
| 20260503131320 | 43 | 342 | 2.0 | 3.0 | 0.00 | 0.00 | 0.00 | 78 | 1018.7 |
| 20260503130817 | 42 | 357 | 0.0 | 0.0 | 0.00 | 0.00 | 0.00 | 79 | 1018.7 |
| 20260503130309 | 41 | 323 | 1.0 | 2.0 | 0.00 | 0.00 | 0.00 | 80 | 1018.5 |
| 20260503110703 | 33 | 359 | 0.0 | 0.0 | 0.00 | 0.00 | 0.00 | 99 | 1017.7 |
| 20260503110200 | 32 | 359 | 0.0 | 0.0 | 0.00 | 0.00 | 0.00 | 99 | 1017.5 |
| 20260503100126 | 28 | 351 | 0.0 | 0.0 | 0.00 | 0.00 | 0.00 | 99 | 1017.3 |
| 20260503081510 | 30 | 350 | 0.0 | 0.0 | 0.00 | 0.00 | 0.00 | 99 | 1017.2 |
| 20260503081007 | 30 | 350 | 0.0 | 0.0 | 0.00 | 0.00 | 0.00 | 99 | 1017.1 |
| 20260503080503 | 30 | 350 | 0.0 | 0.0 | 0.00 | 0.00 | 0.00 | 99 | 1017.1 |
| 20260503072939 | 31 | 349 | 0.0 | 0.0 | 0.00 | 0.00 | 0.00 | 97 | 1017.1 |
| 20260503072431 | 31 | 349 | 0.0 | 0.0 | 0.00 | 0.00 | 0.00 | 97 | 1017.0 |
| 20260503071928 | 32 | 349 | 0.0 | 0.0 | 0.00 | 0.00 | 0.00 | 97 | 1017.0 |
| 20260503071425 | 32 | 349 | 0.0 | 0.0 | 0.00 | 0.00 | 0.00 | 97 | 1017.1 |
| 20260503070921 | 32 | 349 | 0.0 | 0.0 | 0.00 | 0.00 | 0.00 | 97 | 1017.1 |
| 20260503070418 | 32 | 349 | 0.0 | 0.0 | 0.00 | 0.00 | 0.00 | 96 | 1017.4 |
| 20260503060338 | 35 | 352 | 0.0 | 0.0 | 0.00 | 0.00 | 0.00 | 95 | 1017.5 |
| 20260503054826 | 35 | 347 | 0.0 | 0.0 | 0.00 | 0.00 | 0.00 | 94 | 1017.4 |
| 20260503054321 | 35 | 347 | 0.0 | 0.0 | 0.00 | 0.00 | 0.00 | 94 | 1017.5 |
| 20260503053819 | 35 | 343 | 0.0 | 0.0 | 0.00 | 0.00 | 0.00 | 94 | 1017.6 |
| 20260503053317 | 35 | 343 | 0.0 | 0.0 | 0.00 | 0.00 | 0.00 | 94 | 1017.5 |
| 20260503052813 | 35 | 343 | 0.0 | 0.0 | 0.00 | 0.00 | 0.00 | 94 | 1017.4 |
| 20260503052311 | 35 | 344 | 0.0 | 0.0 | 0.00 | 0.00 | 0.00 | 93 | 1017.6 |
| 20260503051806 | 35 | 344 | 0.0 | 0.0 | 0.00 | 0.00 | 0.00 | 93 | 1017.5 |
| 20260503051303 | 35 | 343 | 0.0 | 0.0 | 0.00 | 0.00 | 0.00 | 93 | 1017.5 |
| 20260503050800 | 35 | 343 | 0.0 | 0.0 | 0.00 | 0.00 | 0.00 | 93 | 1017.5 |
| 20260503050256 | 35 | 343 | 0.0 | 0.0 | 0.00 | 0.00 | 0.00 | 93 | 1017.6 |
| 20260503045754 | 35 | 343 | 0.0 | 0.0 | 0.00 | 0.00 | 0.00 | 93 | 1017.5 |
| 20260503045252 | 35 | 343 | 0.0 | 0.0 | 0.00 | 0.00 | 0.00 | 93 | 1017.7 |
| 20260503044747 | 35 | 343 | 0.0 | 0.0 | 0.00 | 0.00 | 0.00 | 93 | 1017.6 |
| 20260503044245 | 35 | 343 | 0.0 | 0.0 | 0.00 | 0.00 | 0.00 | 93 | 1017.5 |
| 20260503043742 | 35 | 343 | 0.0 | 0.0 | 0.00 | 0.00 | 0.00 | 92 | 1017.8 |
| 20260503043239 | 35 | 343 | 0.0 | 0.0 | 0.00 | 0.00 | 0.00 | 92 | 1017.6 |
| 20260503042735 | 35 | 343 | 0.0 | 0.0 | 0.00 | 0.00 | 0.00 | 92 | 1017.7 |
| 20260503042232 | 35 | 343 | 0.0 | 0.0 | 0.00 | 0.00 | 0.00 | 92 | 1017.6 |
| 20260503041727 | 35 | 343 | 0.0 | 0.0 | 0.00 | 0.00 | 0.00 | 91 | 1017.6 |
| 20260503041225 | 35 | 343 | 0.0 | 0.0 | 0.00 | 0.00 | 0.00 | 92 | 1017.6 |
| 20260503040723 | 35 | 343 | 0.0 | 0.0 | 0.00 | 0.00 | 0.00 | 92 | 1017.7 |
| 20260503040220 | 35 | 343 | 0.0 | 0.0 | 0.00 | 0.00 | 0.00 | 92 | 1017.7 |
| 20260503035717 | 35 | 343 | 0.0 | 0.0 | 0.00 | 0.02 | 0.02 | 92 | 1017.7 |
| 20260503035215 | 35 | 343 | 0.0 | 0.0 | 0.00 | 0.02 | 0.02 | 91 | 1017.6 |
| 20260503034712 | 35 | 343 | 0.0 | 0.0 | 0.00 | 0.02 | 0.02 | 91 | 1017.7 |
| 20260503034209 | 35 | 347 | 0.0 | 0.0 | 0.00 | 0.02 | 0.02 | 91 | 1017.7 |
| 20260503033706 | 35 | 347 | 0.0 | 0.0 | 0.00 | 0.02 | 0.02 | 91 | 1017.8 |
| 20260503033203 | 35 | 347 | 0.0 | 0.0 | 0.00 | 0.02 | 0.02 | 91 | 1017.7 |
| 20260503032701 | 35 | 347 | 0.0 | 0.0 | 0.00 | 0.02 | 0.02 | 91 | 1017.6 |
| 20260503032200 | 35 | 347 | 0.0 | 0.0 | 0.00 | 0.02 | 0.02 | 90 | 1017.7 |
| 20260503031656 | 35 | 347 | 0.0 | 0.0 | 0.00 | 0.02 | 0.02 | 90 | 1017.7 |
| 20260503031155 | 36 | 347 | 0.0 | 0.0 | 0.00 | 0.02 | 0.02 | 90 | 1017.7 |
| 20260503030650 | 36 | 348 | 0.0 | 0.0 | 0.00 | 0.02 | 0.02 | 91 | 1017.7 |
| 20260503030147 | 36 | 349 | 0.0 | 0.0 | 0.00 | 0.02 | 0.02 | 91 | 1017.8 |
| 20260503025644 | 36 | 351 | 0.0 | 0.0 | 0.00 | 0.02 | 0.02 | 91 | 1017.7 |
| 20260503025142 | 36 | 352 | 0.0 | 0.0 | 0.00 | 0.02 | 0.02 | 90 | 1017.7 |
| 20260503024638 | 36 | 347 | 0.0 | 0.0 | 0.00 | 0.02 | 0.02 | 88 | 1017.8 |
| 20260503024136 | 37 | 347 | 0.0 | 0.0 | 0.00 | 0.02 | 0.02 | 88 | 1017.8 |
| 20260503023632 | 37 | 347 | 0.0 | 0.0 | 0.00 | 0.02 | 0.02 | 87 | 1018.0 |
| 20260503023129 | 37 | 347 | 0.0 | 0.0 | 0.00 | 0.02 | 0.02 | 88 | 1018.1 |
| 20260503022625 | 37 | 347 | 0.0 | 0.0 | 0.00 | 0.02 | 0.02 | 88 | 1017.9 |
| 20260503022120 | 37 | 347 | 0.0 | 0.0 | 0.00 | 0.02 | 0.02 | 88 | 1018.1 |
| 20260503021617 | 37 | 347 | 0.0 | 0.0 | 0.00 | 0.02 | 0.02 | 88 | 1018.0 |
| 20260503021114 | 37 | 347 | 0.0 | 0.0 | 0.00 | 0.02 | 0.02 | 88 | 1017.8 |
| 20260503020611 | 37 | 347 | 0.0 | 0.0 | 0.00 | 0.02 | 0.02 | 89 | 1017.9 |
| 20260503020108 | 37 | 347 | 0.0 | 0.0 | 0.00 | 0.02 | 0.02 | 91 | 1017.9 |
| 20260503015605 | 37 | 347 | 0.0 | 0.0 | 0.00 | 0.02 | 0.02 | 90 | 1017.9 |
| 20260503015102 | 37 | 347 | 0.0 | 0.0 | 0.00 | 0.02 | 0.02 | 90 | 1017.9 |
| 20260503014557 | 37 | 347 | 0.0 | 0.0 | 0.00 | 0.02 | 0.02 | 90 | 1017.7 |
| 20260503014055 | 37 | 347 | 0.0 | 0.0 | 0.00 | 0.02 | 0.02 | 90 | 1017.7 |
| 20260503013553 | 37 | 347 | 0.0 | 0.0 | 0.00 | 0.02 | 0.02 | 90 | 1017.7 |
| 20260503013050 | 37 | 347 | 0.0 | 0.0 | 0.00 | 0.02 | 0.02 | 90 | 1017.9 |
| 20260503012548 | 37 | 347 | 0.0 | 0.0 | 0.00 | 0.02 | 0.02 | 90 | 1017.7 |
| 20260503012044 | 37 | 347 | 0.0 | 0.0 | 0.00 | 0.02 | 0.02 | 89 | 1017.7 |
| 20260503011540 | 37 | 347 | 0.0 | 0.0 | 0.00 | 0.02 | 0.02 | 88 | 1017.9 |
| 20260503011038 | 37 | 347 | 0.0 | 0.0 | 0.00 | 0.02 | 0.02 | 87 | 1017.6 |
| 20260503010534 | 37 | 347 | 0.0 | 0.0 | 0.00 | 0.02 | 0.02 | 86 | 1017.8 |